Regional Weather Roundup
Issued by NWS

Home | Current Version | Previous Version | Graphics & Text | Print | Product List | Glossary On
Versions: 1 2 3 4 5 6 7 8 9 10 11 12 13 14 15 16 17 18 19 20 21 22 23 24 25 26 27 28 29 30 31 32 33 34 35 36 37 38 39 40 41 42 43 44 45 46 47 48 49 50
000
ASUS43 KLMK 020702
RWRKY
KENTUCKY REGIONAL WEATHER ROUNDUP
NATIONAL WEATHER SERVICE LOUISVILLE KY
300 AM EDT SAT AUG 02 2014

NOTE "FAIR" INDICATES FEW OR NO CLOUDS BELOW 12,000 FEET
WITH NO SIGNIFICANT WEATHER AND/OR OBSTRUCTIONS TO VISIBILITY.

KYZ001>023-026-027-061>063-070>075-020800-
WESTERN AND SOUTH CENTRAL KENTUCKY

CITY           SKY/WX    TMP DP  RH WIND       PRES   REMARKS
PADUCAH        MOCLDY    71  64  78 NE3       30.05F
HENDERSON      CLOUDY   N/A N/A N/A MISG        N/A
OWENSBORO      MOCLDY    71  64  78 E5        30.06F
HOPKINSVILLE   CLEAR     65  62  89 N7        30.04F
BOWLING GREEN  MOCLDY    66  57  72 CALM      30.06S
GLASGOW        CLEAR     62  61  94 CALM      30.06S
$$

KYZ024-025-028>034-038-045-046-053-020800-
NORTH CENTRAL KENTUCKY

CITY           SKY/WX    TMP DP  RH WIND       PRES   REMARKS
LOUISVILLE/SDF PTCLDY    70  63  78 N6        30.05F
LOUISVILLE/LOU PTCLDY    68  62  81 NW3       30.06F
FORT KNOX      PTCLDY    62  61  95 CALM      30.05F
$$

KYZ035>037-039>044-047>052-055>060-089>105-020800-
NORTHEAST KENTUCKY

CITY           SKY/WX    TMP DP  RH WIND       PRES   REMARKS
LEXINGTON      CLOUDY    69  61  75 CALM      30.07S
COVINGTON      MOCLDY    70  62  76 CALM      30.07F
FRANKFORT      CLEAR     64  61  90 CALM      30.05F
$$

KYZ054-064>069-076>088-106>120-020800-
SOUTHEAST KENTUCKY

CITY           SKY/WX    TMP DP  RH WIND       PRES   REMARKS
JACKSON        CLEAR     67  63  87 SE5       30.08F
LONDON         CLEAR     67  63  87 CALM      30.08F
SOMERSET       CLEAR     64  64 100 CALM      30.08F FOG
MIDDLESBORO    CLOUDY    70  60  71 S3        30.10S
MONTICELLO     MOSUNNY   65  65 100 CALM      30.09S FOG
$$



USA.gov is the U.S. government's official web portal to all federal, state and local government web resources and services.